EW7144 Weather Reports


time (UTC)temp
F
wind
direction
speed
knots
gust
knots
rain 1hr
in
rain 24hr
in
rain mn
in
humidity
%
barometer
mb
20260904161906 52 205 4.3 10.4 0.00 0.00 0.00 76 1013.5
20260904161406 52 223 5.2 12.2 0.00 0.00 0.00 76 1013.4
20260904160906 52 196 4.3 10.4 0.00 0.00 0.00 76 1013.3
20260904160406 52 198 4.3 15.6 0.00 0.00 0.00 76 1013.2
20260904155906 52 219 6.1 13.9 0.00 0.00 0.00 76 1013.1
20260904155406 52 224 5.2 14.8 0.00 0.00 0.00 76 1013.0
20260904154906 52 200 5.2 15.6 0.00 0.00 0.00 77 1013.0
20260904154406 52 204 7.8 17.4 0.00 0.00 0.00 77 1013.0
20260904153906 52 236 2.6 10.4 0.00 0.00 0.00 77 1013.1
20260904153406 52 209 4.3 13.9 0.00 0.00 0.00 77 1013.1
20260904152905 53 230 3.5 11.3 0.00 0.00 0.00 77 1013.0
20260904152406 53 239 5.2 14.8 0.00 0.00 0.00 77 1012.9
20260904151906 53 202 7.0 13.9 0.00 0.00 0.00 77 1012.8
20260904151406 53 206 6.1 13.0 0.00 0.00 0.00 77 1012.8
20260904150906 53 193 7.0 14.8 0.00 0.00 0.00 77 1012.8
20260904150406 53 211 7.8 15.6 0.00 0.00 0.00 77 1012.8
20260904145906 53 217 6.1 17.4 0.00 0.00 0.00 77 1012.8
20260904145406 52 220 6.1 15.6 0.00 0.00 0.00 77 1012.8
20260904144905 53 196 5.2 12.2 0.00 0.00 0.00 76 1012.9
20260904144406 53 198 7.0 18.2 0.00 0.00 0.00 76 1012.9
20260904143906 53 203 6.1 14.8 0.00 0.00 0.00 76 1012.9
20260904143406 53 195 7.0 17.4 0.00 0.00 0.00 76 1012.9
20260904142906 53 218 5.2 12.2 0.00 0.00 0.00 76 1013.0
20260904142406 53 203 6.1 14.8 0.00 0.00 0.00 76 1013.0
20260904141906 54 199 6.1 15.6 0.00 0.00 0.00 76 1012.9
20260904140906 53 211 7.8 18.2 0.00 0.00 0.00 76 1012.8
20260904140406 53 211 6.1 15.6 0.00 0.00 0.00 76 1012.8
20260904135406 53 229 5.2 20.0 0.00 0.00 0.00 76 1012.7
20260904134906 54 206 6.1 18.2 0.00 0.00 0.00 76 1012.8
20260904134406 53 215 7.8 22.6 0.00 0.00 0.00 76 1012.7
20260904133907 53 208 5.2 13.0 0.00 0.00 0.00 75 1012.6
20260904132906 53 216 8.7 19.1 0.00 0.00 0.00 76 1012.3
20260904132407 53 203 7.8 17.4 0.00 0.00 0.00 77 1012.3
20260904131906 53 194 5.2 18.2 0.00 0.00 0.00 77 1012.3
20260904131406 53 215 5.2 22.6 0.00 0.00 0.00 77 1012.3
20260904130906 53 202 8.7 17.4 0.00 0.00 0.00 77 1012.2
20260904130406 53 231 6.1 15.6 0.00 0.00 0.00 76 1012.2
20260904125906 53 202 4.3 17.4 0.00 0.00 0.00 76 1011.9
20260904124906 53 191 7.0 15.6 0.00 0.00 0.00 76 1011.8
20260904124405 53 192 7.8 17.4 0.00 0.00 0.00 77 1011.7
20260904123906 53 216 8.7 21.7 0.00 0.00 0.00 77 1011.6
20260904123406 52 189 6.1 17.4 0.00 0.00 0.00 78 1011.5
20260904121906 52 203 7.8 13.9 0.00 0.00 0.00 79 1011.3
20260904121407 52 288 4.3 14.8 0.00 0.00 0.00 78 1011.3
20260904120906 52 234 6.1 15.6 0.00 0.00 0.00 78 1011.4
20260904115906 52 196 6.1 18.2 0.00 0.00 0.00 78 1011.3
20260904114906 53 240 5.2 17.4 0.00 0.00 0.00 77 1011.1
20260904114408 53 201 8.7 24.3 0.00 0.00 0.00 76 1011.1
20260904113906 53 202 7.8 24.3 0.00 0.00 0.00 76 1011.1
20260904113406 54 217 7.0 18.2 0.00 0.00 0.00 76 1011.1
20260904112907 53 222 7.0 13.9 0.00 0.00 0.00 76 1011.0
20260904112406 53 228 8.7 18.2 0.00 0.00 0.00 76 1010.9
20260904111906 53 199 7.0 18.2 0.00 0.00 0.00 76 1010.8
20260904110906 53 226 6.1 17.4 0.00 0.00 0.00 75 1010.9
20260904110406 53 220 6.1 15.6 0.00 0.00 0.00 75 1011.0
20260904105907 53 216 7.0 17.4 0.00 0.00 0.00 74 1010.9
20260904105407 53 206 6.1 17.4 0.00 0.00 0.00 74 1011.0
20260904104907 53 300 7.8 22.6 0.00 0.00 0.00 74 1010.8
20260904103906 53 216 4.3 11.3 0.00 0.00 0.00 75 1010.7
20260904103406 53 209 6.1 20.9 0.00 0.00 0.00 74 1010.5
20260904102906 53 218 8.7 19.1 0.00 0.00 0.00 75 1010.4
20260904102410 53 259 8.7 20.9 0.00 0.00 0.00 75 1010.2
20260904101906 53 256 7.8 17.4 0.00 0.00 0.00 76 1010.2
20260904100906 53 223 8.7 19.1 0.00 0.00 0.00 75 1010.3
20260904100407 53 225 8.7 24.3 0.00 0.00 0.00 75 1010.3
20260904095907 53 226 6.1 17.4 0.00 0.00 0.00 75 1010.2
20260904094906 53 194 5.2 12.2 0.00 0.00 0.00 74 1010.0
20260904094406 53 222 8.7 18.2 0.00 0.00 0.00 74 1010.0
20260904093906 53 215 7.8 17.4 0.00 0.00 0.00 75 1009.9
20260904093406 53 233 7.0 15.6 0.00 0.00 0.00 74 1009.9
20260904091906 53 264 7.0 18.2 0.00 0.00 0.00 76 1009.7
20260904091406 53 214 9.6 18.2 0.00 0.00 0.00 76 1009.4
20260904090906 53 237 7.8 17.4 0.00 0.00 0.00 76 1009.6
20260904090406 53 244 10.4 20.0 0.00 0.00 0.00 75 1009.6
20260904085906 53 229 6.1 19.1 0.00 0.00 0.00 76 1009.5
20260904085406 53 226 7.8 21.7 0.00 0.00 0.00 75 1009.5
20260904084906 53 228 10.4 21.7 0.00 0.00 0.00 75 1009.3
20260904084406 53 204 6.1 20.9 0.00 0.00 0.00 76 1009.2
20260904083906 53 224 11.3 21.7 0.00 0.00 0.00 75 1009.2
20260904083406 53 206 9.6 20.0 0.00 0.00 0.00 76 1009.1
20260904082907 53 223 8.7 20.0 0.00 0.00 0.00 77 1008.9
20260904081906 53 239 7.8 24.3 0.00 0.00 0.00 79 1008.7
20260904081406 53 200 10.4 20.0 0.00 0.00 0.00 80 1008.5
20260904080906 53 245 7.8 22.6 0.00 0.00 0.00 80 1008.3
20260904080406 53 210 12.2 24.3 0.00 0.00 0.00 81 1007.9
20260904075906 53 214 12.2 26.1 0.00 0.00 0.00 81 1007.8
20260904075406 53 317 10.4 24.3 0.00 0.00 0.00 81 1007.7
20260904074906 52 219 8.7 22.6 0.00 0.00 0.00 82 1007.8
20260904074410 52 201 7.0 20.9 0.00 0.00 0.00 82 1007.7
20260904073406 51 214 7.8 21.7 0.00 0.00 0.00 81 1007.9
20260904072906 51 202 9.6 20.9 0.00 0.00 0.00 81 1007.8
20260904072406 51 206 9.6 22.6 0.00 0.00 0.00 81 1007.6
20260904071906 51 234 9.6 20.0 0.00 0.00 0.00 81 1007.6
20260904065406 50 214 15.6 27.8 0.00 0.00 0.00 84 1007.5
20260904064906 49 211 14.8 31.3 0.00 0.00 0.00 85 1007.3
20260904064406 49 217 13.0 27.8 0.00 0.00 0.00 86 1007.3
20260904063906 49 221 13.9 30.4 0.00 0.00 0.00 86 1007.3
20260904063406 49 248 13.0 22.6 0.00 0.00 0.00 87 1007.1
20260904062906 49 212 11.3 26.9 0.00 0.00 0.00 87 1007.2
20260904062406 49 222 11.3 24.3 0.00 0.00 0.00 86 1007.3
20260904061907 50 225 12.2 27.8 0.00 0.00 0.00 86 1007.6
20260904061406 50 201 10.4 25.2 0.00 0.00 0.00 85 1007.7
20260904060406 52 232 12.2 25.2 0.00 0.00 0.00 82 1007.9
20260904055906 54 283 12.2 21.7 0.00 0.00 0.00 81 1007.6
20260904055405 55 320 13.0 24.3 0.00 0.00 0.00 80 1007.3
20260904054906 55 321 8.7 19.1 0.00 0.00 0.00 81 1007.1
20260904054405 55 319 8.7 22.6 0.00 0.00 0.00 80 1006.9
20260904053406 55 300 9.6 20.0 0.00 0.00 0.00 80 1007.0
20260904052905 55 307 11.3 28.7 0.00 0.00 0.00 80 1007.0
20260904052406 55 236 10.4 22.6 0.00 0.00 0.00 80 1007.1
20260904051906 55 244 10.4 21.7 0.00 0.00 0.00 80 1007.0
20260904050906 54 233 7.8 18.2 0.00 0.00 0.00 81 1007.2
20260904050405 54 250 10.4 20.0 0.00 0.00 0.00 82 1007.1
20260904045906 54 235 10.4 24.3 0.00 0.00 0.00 83 1007.1
20260904045405 52 308 7.8 17.4 0.00 0.00 0.00 84 1007.1
20260904044906 51 301 7.8 17.4 0.00 0.00 0.00 85 1007.3
20260904044405 51 264 10.4 19.1 0.00 0.00 0.00 84 1007.3
20260904043905 51 252 9.6 22.6 0.00 0.00 0.00 84 1007.4
20260904043405 51 205 12.2 22.6 0.00 0.00 0.00 84 1007.5
20260904042406 54 235 13.9 32.2 0.00 0.00 0.00 83 1007.1
20260904041906 54 225 9.6 20.9 0.00 0.00 0.00 84 1006.6
20260904041406 55 264 9.6 19.1 0.00 0.00 0.00 84 1006.6
20260904040905 54 221 8.7 20.9 0.00 0.00 0.00 84 1006.7
20260904040406 54 272 10.4 19.1 0.00 0.00 0.00 81 1006.7
20260904035905 56 271 8.7 21.7 0.00 0.00 0.00 78 1007.2
20260904035405 58 317 11.3 25.2 0.00 0.00 0.00 75 1006.6
20260904034905 59 326 12.2 25.2 0.00 0.00 0.00 74 1006.6
20260904034405 59 341 8.7 22.6 0.00 0.00 0.00 73 1006.4
20260904033905 59 272 10.4 20.9 0.00 0.00 0.00 73 1006.2
20260904033406 59 295 10.4 22.6 0.00 0.00 0.00 74 1006.2
20260904032906 59 320 7.0 19.1 0.00 0.00 0.00 76 1005.9
20260904031906 57 293 7.8 17.4 0.00 0.00 0.00 76 1006.0
20260904031406 57 283 8.7 20.0 0.00 0.00 0.00 74 1006.1
20260904030905 58 322 11.3 20.0 0.00 0.00 0.00 73 1006.2
20260904030406 59 252 9.6 22.6 0.00 0.00 0.00 71 1006.0
20260904025406 59 302 8.7 20.9 0.00 0.00 0.00 71 1006.2
20260904024905 59 315 9.6 20.9 0.00 0.00 0.00 70 1005.9
20260904024406 59 300 10.4 20.9 0.00 0.00 0.00 70 1006.0
20260904023406 60 224 8.7 19.1 0.00 0.00 0.00 71 1005.8
20260904022905 59 296 9.6 22.6 0.00 0.00 0.00 71 1005.8
20260904022406 59 238 10.4 24.3 0.00 0.00 0.00 70 1005.8
20260904021905 59 225 11.3 26.1 0.00 0.00 0.00 70 1005.6
20260904021406 59 221 11.3 22.6 0.00 0.00 0.00 70 1005.6
20260904020906 60 259 8.7 25.2 0.00 0.00 0.00 71 1005.6
20260904020406 60 214 10.4 22.6 0.00 0.00 0.00 71 1005.6
20260904015905 59 332 7.8 19.1 0.00 0.00 0.00 70 1005.6
20260904015405 60 333 9.6 20.0 0.00 0.00 0.00 72 1005.7
20260904014906 60 317 8.7 22.6 0.00 0.00 0.00 73 1005.7
20260904014406 60 340 6.1 19.1 0.00 0.00 0.00 74 1005.8
20260904013905 60 327 8.7 17.4 0.00 0.00 0.00 73 1005.8
20260904013406 60 330 10.4 19.1 0.00 0.00 0.00 73 1005.9
20260904012906 60 331 8.7 17.4 0.00 0.00 0.00 72 1006.0
20260904011905 60 216 9.6 19.1 0.00 0.00 0.00 70 1006.1
20260904011406 60 324 10.4 22.6 0.00 0.00 0.00 70 1006.1
20260904010906 60 238 8.7 19.1 0.00 0.00 0.00 70 1006.1
20260904010405 60 336 7.8 17.4 0.00 0.00 0.00 69 1006.2
20260904005906 60 326 7.0 17.4 0.00 0.00 0.00 71 1006.3
20260904005406 59 285 7.0 17.4 0.00 0.00 0.00 71 1006.3
20260904004905 60 280 8.7 18.2 0.00 0.00 0.00 72 1006.4
20260904004406 60 311 8.7 20.9 0.00 0.00 0.00 73 1006.4
20260904003906 60 293 7.8 24.3 0.00 0.00 0.00 74 1006.2
20260904003406 59 298 10.4 19.1 0.00 0.00 0.00 73 1006.2
20260904002906 60 341 7.8 20.9 0.00 0.00 0.00 73 1006.2
20260904002405 60 291 7.8 20.9 0.00 0.00 0.00 74 1006.2
20260904001908 59 258 10.4 20.9 0.00 0.00 0.00 71 1006.1
20260904000906 59 332 10.4 22.6 0.00 0.00 0.00 72 1006.1
20260904000406 59 282 8.7 22.6 0.00 0.00 0.00 73 1005.9
20260903235907 59 320 6.1 25.2 0.00 0.00 0.00 75 1006.0
20260903235406 59 320 7.8 17.4 0.00 0.00 0.00 75 1005.9
20260903234906 59 294 8.7 20.0 0.00 0.00 0.00 74 1005.7
20260903234406 59 293 10.4 26.1 0.00 0.00 0.00 74 1005.5
20260903233906 59 313 8.7 18.2 0.00 0.00 0.00 75 1005.5
20260903233406 59 336 10.4 22.6 0.00 0.00 0.00 74 1005.3
20260903232906 59 318 9.6 25.2 0.00 0.00 0.00 75 1005.3
20260903231906 59 323 8.7 17.4 0.00 0.00 0.00 75 1005.3
20260903230905 59 236 7.8 15.6 0.00 0.00 0.00 74 1005.3
20260903225906 58 281 8.7 22.6 0.00 0.00 0.00 77 1005.2
20260903225406 58 325 11.3 22.6 0.00 0.00 0.00 75 1005.2
20260903224406 58 327 7.8 22.6 0.00 0.00 0.00 78 1004.8
20260903223906 58 249 9.6 20.9 0.00 0.00 0.00 79 1004.8
20260903223406 58 301 7.8 22.6 0.00 0.00 0.00 80 1004.9
20260903222906 57 222 8.7 27.8 0.00 0.00 0.00 80 1004.9
20260903222406 57 205 9.6 20.0 0.00 0.00 0.00 80 1004.9
20260903221906 57 230 10.4 24.3 0.00 0.00 0.00 84 1004.9
20260903221405 56 257 7.8 21.7 0.00 0.00 0.00 86 1004.8
20260903220905 56 232 10.4 20.9 0.00 0.00 0.00 86 1004.8
20260903220406 55 222 7.8 19.1 0.00 0.00 0.00 87 1004.8
20260903215906 55 339 7.8 21.7 0.00 0.00 0.00 87 1004.8
20260903215405 56 299 12.2 26.1 0.00 0.00 0.00 86 1004.7
20260903214906 58 350 13.9 25.2 0.00 0.00 0.00 86 1004.7
20260903213906 59 337 7.8 20.0 0.00 0.00 0.00 88 1004.3
20260903213405 59 328 8.7 20.9 0.00 0.00 0.00 88 1004.3
20260903212906 58 314 11.3 24.3 0.00 0.00 0.00 89 1004.3
20260903212406 58 315 10.4 24.3 0.00 0.00 0.00 89 1004.3
20260903211405 58 342 7.8 20.9 0.00 0.00 0.00 90 1004.2
20260903210906 58 302 8.7 20.0 0.00 0.00 0.00 90 1004.1
20260903205906 57 315 9.6 20.9 0.00 0.00 0.00 91 1004.3
20260903205406 57 318 8.7 20.0 0.00 0.00 0.00 90 1004.2
20260903204906 57 309 6.1 17.4 0.00 0.00 0.00 91 1004.3
20260903204406 57 289 10.4 19.1 0.00 0.00 0.00 91 1004.2
20260903203406 57 319 11.3 20.9 0.00 0.00 0.00 91 1004.2
20260903202906 57 327 10.4 25.2 0.00 0.00 0.00 91 1004.2
20260903202405 57 327 9.6 19.1 0.00 0.00 0.00 91 1004.2
20260903201905 58 334 12.2 21.7 0.00 0.00 0.00 91 1004.1
20260903201406 57 328 15.6 30.4 0.00 0.00 0.00 91 1004.0
20260903200906 57 333 16.5 34.8 0.00 0.00 0.00 91 1003.9
20260903200406 58 351 15.6 30.4 0.00 0.00 0.00 91 1004.0
20260903195905 58 339 12.2 21.7 0.00 0.00 0.00 91 1003.9
20260903194905 58 341 14.8 26.1 0.00 0.00 0.00 91 1003.9
20260903194405 58 322 15.6 26.9 0.00 0.00 0.00 91 1004.0
20260903193906 58 348 17.4 27.8 0.00 0.00 0.00 91 1004.1
20260903193406 58 331 18.2 32.2 0.00 0.00 0.00 91 1003.9
20260903192906 58 349 18.2 34.8 0.00 0.00 0.00 91 1003.7
20260903192405 58 341 15.6 27.8 0.00 0.00 0.00 91 1003.6
20260903191906 58 338 18.2 33.0 0.00 0.00 0.00 91 1003.6
20260903191406 58 351 19.1 27.8 0.00 0.00 0.00 91 1003.6
20260903190905 58 345 15.6 28.7 0.00 0.00 0.00 91 1003.5
20260903185905 58 351 14.8 25.2 0.00 0.00 0.00 91 1003.6
20260903185406 58 343 11.3 22.6 0.00 0.00 0.00 91 1003.9
20260903184906 58 347 13.0 20.9 0.00 0.00 0.00 91 1004.1
20260903184406 58 346 12.2 25.2 0.00 0.00 0.00 91 1004.4
20260903183406 58 342 13.9 27.8 0.00 0.00 0.00 91 1004.7
20260903182906 58 342 14.8 24.3 0.00 0.00 0.00 91 1004.7
20260903182405 58 346 13.0 21.7 0.00 0.00 0.00 91 1004.9
20260903181905 58 353 10.4 20.0 0.00 0.00 0.00 91 1005.1
20260903181406 58 333 13.9 25.2 0.00 0.00 0.00 91 1005.4
20260903180905 58 340 12.2 22.6 0.00 0.00 0.00 91 1005.4
20260903180405 58 348 8.7 25.2 0.00 0.00 0.00 91 1005.5
20260903175906 58 346 12.2 24.3 0.00 0.00 0.00 91 1005.7
20260903174406 58 347 14.8 30.4 0.00 0.00 0.00 91 1005.8
20260903173405 58 358 11.3 24.3 0.00 0.00 0.00 91 1005.7
20260903172906 58 349 13.0 26.1 0.00 0.00 0.00 91 1005.6
20260903172405 58 329 15.6 26.9 0.00 0.00 0.00 91 1005.6
20260903171906 58 333 15.6 27.8 0.00 0.00 0.00 91 1005.7
20260903171405 58 336 18.2 32.2 0.00 0.00 0.00 91 1005.7
20260903170906 58 356 14.8 22.6 0.00 0.00 0.00 91 1005.9
20260903170406 58 338 12.2 27.8 0.00 0.00 0.00 91 1006.1
20260903165905 58 348 15.6 25.2 0.00 0.00 0.00 91 1006.3
20260903165406 58 334 14.8 28.7 0.00 0.00 0.00 91 1006.2
20260903164905 58 345 13.9 26.9 0.00 0.00 0.00 91 1006.2
20260903164405 58 339 14.8 26.9 0.00 0.00 0.00 91 1006.2
20260903163906 58 353 13.9 27.8 0.00 0.00 0.00 91 1006.1
20260903163406 58 334 13.0 25.2 0.00 0.00 0.00 91 1006.1
20260903162906 58 356 15.6 28.7 0.00 0.00 0.00 91 1006.1
20260903162406 58 342 15.6 28.7 0.00 0.00 0.00 91 1006.1